{"data":{"norad_id":52787,"epoch":"2026-09-20T22:41:04.559424Z","epoch_age_seconds":93190,"freshness":"FRESH","line1":"1 52787U 22058C   26263.94519166  .00000862  00000+0  13657-3 0  9996","line2":"2 52787  49.9863 119.0120 0008214 109.9297 250.2526 14.81618475234136","mean_motion":14.81618475,"eccentricity":0.0008214,"inclination_deg":49.9863,"raan_deg":119.012,"arg_perigee_deg":109.9297,"mean_anomaly_deg":250.2526,"bstar":0.00013657,"rev_number":23413,"period_min":97.191012686313,"perigee_km":618.46831073306,"apogee_km":629.97178288956,"semimajor_km":7002.3570468113,"source":"CELESTRAK","updated_at":"2026-09-21T09:00:08.720098Z"}}